EW8130 Weather Reports


time (UTC)temp
F
wind
direction
speed
knots
gust
knots
rain 1hr
in
rain 24hr
in
rain mn
in
humidity
%
barometer
mb
20240723061526 71 209 0.0 0.9 0.00 1.76 0.00 92 994.9
20240723060029 71 217 0.0 0.9 0.00 1.76 0.00 91 995.0
20240723054526 72 187 0.0 2.6 0.00 1.76 0.00 92 995.1
20240723053032 71 181 0.0 1.7 0.00 1.76 0.00 92 994.8
20240723051536 72 200 0.0 2.6 0.00 1.76 0.00 92 994.9
20240723050019 71 139 0.0 0.9 0.00 1.76 0.00 92 994.7
20240723044522 72 175 0.0 1.7 0.00 1.76 1.76 92 995.0
20240723043020 72 188 0.0 5.2 0.00 1.76 1.76 92 995.2
20240723041518 72 118 0.0 0.9 0.00 1.76 1.76 92 994.9
20240723040018 72 119 0.0 0.9 0.00 1.76 1.76 91 995.0
20240723034517 72 165 0.0 0.9 0.00 1.76 1.76 91 995.1
20240723033017 72 97 0.0 0.9 0.00 1.76 1.76 91 995.1
20240723031517 72 160 0.0 0.9 0.00 1.76 1.76 91 995.2
20240723030021 72 173 0.0 0.9 0.00 1.76 1.76 90 994.9
20240723024516 72 170 0.0 0.9 0.00 1.76 1.76 91 994.8
20240723023019 72 219 0.0 0.9 0.00 1.76 1.76 90 994.6
20240723021535 72 183 0.0 0.9 0.00 1.76 1.76 91 994.5
20240723020023 73 195 0.0 1.7 0.00 1.76 1.76 91 994.3
20240723014514 73 142 0.0 1.7 0.00 1.78 1.76 92 994.1
20240723013013 73 146 0.0 0.9 0.00 1.78 1.76 92 994.0
20240723011530 73 126 0.0 2.6 0.00 1.78 1.76 92 993.9
20240723010013 73 143 0.0 4.3 0.00 1.78 1.76 92 994.0
20240723004515 74 125 0.0 0.9 0.00 1.78 1.76 91 994.0
20240723003012 74 154 0.0 0.9 0.00 1.78 1.76 91 994.1
20240723001512 74 100 0.0 0.9 0.00 1.78 1.76 90 994.3
20240723000021 74 86 0.0 4.3 0.00 1.78 1.76 90 994.1
20240722234511 75 44 0.9 7.0 0.00 1.78 1.76 90 994.2
20240722233028 75 122 0.0 8.7 0.00 1.78 1.76 90 994.0
20240722231509 75 124 2.6 12.2 0.00 1.78 1.76 89 993.7
20240722230015 76 77 2.6 10.4 0.00 1.78 1.76 89 993.4
20240722224513 76 110 0.9 7.8 0.00 1.78 1.76 89 993.6
20240722223012 75 122 0.0 8.7 0.00 1.78 1.76 90 993.8
20240722221508 76 89 0.9 7.0 0.00 1.78 1.76 90 994.0
20240722220009 75 118 0.0 0.9 0.01 1.78 1.76 90 993.5
20240722214522 74 148 0.0 0.9 0.05 1.78 1.76 90 993.2
20240722213023 73 89 0.0 1.7 0.11 1.78 1.76 90 993.2
20240722211504 72 62 0.0 1.7 0.35 1.78 1.76 93 993.7
20240722210007 71 95 0.0 0.9 0.76 1.77 1.75 93 993.7
20240722204511 71 124 0.0 6.1 1.47 1.73 1.71 93 993.7
20240722203003 71 66 0.0 0.9 1.47 1.66 1.64 91 993.8
20240722201502 73 97 0.0 0.9 1.23 1.42 1.40 90 994.1
20240722200002 73 339 4.3 9.6 0.79 0.98 0.96 88 993.8
20240722194502 82 192 5.2 17.4 0.06 0.28 0.23 78 994.2
20240722193111 89 290 0.0 5.2 0.00 0.23 0.17 65 993.8
20240722191559 88 302 0.0 0.9 0.00 0.23 0.17 67 993.9
20240722190055 86 271 0.0 4.3 0.00 0.23 0.17 68 994.1
20240722184551 85 276 0.0 0.0 0.00 0.25 0.17 72 994.2
20240722183053 84 359 0.0 2.6 0.00 0.25 0.17 74 994.4
20240722181546 83 295 0.0 0.9 0.00 0.25 0.17 75 994.4
20240722180103 83 213 0.0 4.3 0.00 0.25 0.17 75 994.5
20240722174546 83 248 0.0 0.9 0.00 0.25 0.17 74 994.6
20240722173045 83 161 0.0 1.7 0.00 0.25 0.17 74 994.7
20240722171543 82 226 0.0 0.9 0.00 0.25 0.17 75 994.9
20240722170056 83 206 0.0 0.9 0.00 0.25 0.17 75 995.2
20240722164543 81 49 0.0 0.9 0.00 0.25 0.17 80 995.3
20240722163035 79 102 0.0 0.9 0.00 0.25 0.17 82 995.4
20240722161533 79 94 0.0 1.7 0.00 0.25 0.17 83 995.4
20240722160037 79 78 0.0 0.9 0.00 0.25 0.17 83 995.6
20240722154531 78 43 0.0 0.9 0.00 0.25 0.17 84 995.3
20240722153030 78 78 0.0 1.7 0.00 0.25 0.17 84 995.4
20240722151528 78 29 0.0 0.9 0.00 0.25 0.17 85 995.4
20240722150027 78 39 0.0 1.7 0.00 0.25 0.17 85 995.3
20240722144527 78 308 0.0 0.9 0.00 0.25 0.17 85 995.4
20240722143026 77 44 0.0 4.3 0.00 0.25 0.17 87 995.4
20240722141527 75 8 0.0 4.3 0.00 0.25 0.17 90 995.3
20240722140022 74 23 0.9 7.8 0.00 0.25 0.17 92 995.3
20240722134521 73 312 0.0 2.6 0.00 0.32 0.17 95 995.2
20240722133020 71 40 0.0 0.9 0.00 0.32 0.17 94 995.1
20240722131522 71 330 0.0 0.0 0.00 0.32 0.17 94 994.9
20240722130018 70 128 0.0 0.0 0.00 0.32 0.17 93 994.8
20240722124518 70 266 0.0 0.0 0.04 0.35 0.17 93 994.8
20240722123027 69 245 0.0 0.0 0.04 0.35 0.17 93 994.6
20240722121517 69 264 0.0 0.0 0.04 0.35 0.17 92 994.5
20240722120015 70 297 0.0 8.7 0.04 0.35 0.17 90 994.5
20240722114512 71 318 0.0 0.9 0.00 0.31 0.13 86 994.7
20240722113009 72 289 0.0 1.7 0.00 0.31 0.13 86 994.4
20240722111508 72 272 0.0 9.6 0.01 0.31 0.13 93 994.3
20240722110006 73 82 0.0 0.9 0.11 0.31 0.13 95 994.0
20240722104506 73 60 0.0 5.2 0.13 0.31 0.13 94 993.9
20240722103005 73 31 0.0 0.9 0.13 0.31 0.13 94 993.8
20240722101504 73 24 0.0 1.7 0.12 0.30 0.12 93 993.7
20240722100002 74 66 0.0 1.7 0.02 0.20 0.02 91 994.0
20240722094502 74 75 0.0 1.7 0.00 0.18 0.00 91 994.0
20240722093001 74 4 0.0 1.7 0.00 0.18 0.00 91 994.1
20240722091501 74 14 0.0 1.7 0.00 0.18 0.00 90 994.1
20240722090100 74 37 0.0 1.7 0.00 0.18 0.00 90 993.9
20240722084600 74 43 0.0 0.9 0.00 0.18 0.00 89 993.8
20240722083105 74 125 0.0 0.9 0.00 0.18 0.00 90 993.6
20240722081600 73 33 0.0 0.9 0.00 0.18 0.00 91 993.8
20240722080058 74 25 0.0 0.9 0.00 0.18 0.00 89 993.6
20240722074557 74 354 0.0 0.9 0.00 0.18 0.00 89 993.6
20240722073117 75 31 0.0 0.9 0.00 0.18 0.00 89 993.7
20240722071554 75 38 0.0 0.9 0.00 0.18 0.00 88 993.9
20240722070051 75 52 0.0 1.7 0.00 0.18 0.00 88 994.0
20240722064547 75 354 0.0 0.9 0.00 0.18 0.00 88 994.0
20240722063051 76 59 0.0 0.9 0.00 0.18 0.00 87 994.1